Time,TemperatureF,DewpointF,PressureIn,WindDirection,WindDirectionDegrees,WindSpeedMPH,WindSpeedGustMPH,Humidity,HourlyPrecipIn,Conditions,Clouds,dailyrainin,SoftwareType,DateUTC
2014-12-28 00:00:00,40.0,33.1,29.99,SSW,213,1.0,5.0,76,0.00,,OVC250,0.00,VWS V14.00,2014-12-28 05:00:00,
2014-12-28 00:05:00,40.0,33.1,29.98,SSE,160,2.0,4.0,76,0.00,,OVC250,0.00,VWS V14.00,2014-12-28 05:05:00,
2014-12-28 00:11:00,40.1,32.8,29.98,SW,226,4.0,5.0,75,0.00,,OVC250,0.00,VWS V14.00,2014-12-28 05:11:00,
2014-12-28 00:16:00,40.3,33.0,29.98,SSW,205,0.0,3.0,75,0.00,,OVC250,0.00,VWS V14.00,2014-12-28 05:16:00,
2014-12-28 00:21:00,40.3,33.0,29.98,SSW,205,2.0,3.0,75,0.00,,OVC250,0.00,VWS V14.00,2014-12-28 05:21:00,
2014-12-28 00:26:00,40.4,33.1,29.98,SW,226,3.0,5.0,75,0.00,,OVC250,0.00,VWS V14.00,2014-12-28 05:26:00,
2014-12-28 00:32:00,40.4,33.1,29.97,SSW,207,2.0,5.0,75,0.00,,OVC250,0.00,VWS V14.00,2014-12-28 05:32:00,
2014-12-28 00:37:00,40.6,33.3,29.96,SSW,207,3.0,3.0,75,0.00,,OVC250,0.00,VWS V14.00,2014-12-28 05:37:00,
2014-12-28 00:42:00,40.7,33.4,29.96,SSW,200,1.0,4.0,75,0.00,,OVC250,0.00,VWS V14.00,2014-12-28 05:42:00,
2014-12-28 00:47:00,40.8,33.5,29.96,SSW,195,3.0,4.0,75,0.00,,OVC250,0.00,VWS V14.00,2014-12-28 05:47:00,
2014-12-28 00:53:00,41.0,33.4,29.95,SSW,195,1.0,6.0,74,0.00,,OVC250,0.00,VWS V14.00,2014-12-28 05:53:00,
2014-12-28 00:58:00,41.1,33.5,29.94,South,178,2.0,5.0,74,0.00,,OVC250,0.00,VWS V14.00,2014-12-28 05:58:00,
2014-12-28 01:03:00,41.3,33.7,29.95,SW,214,3.0,5.0,74,0.00,,OVC080,0.00,VWS V14.00,2014-12-28 06:03:00,
2014-12-28 01:08:00,41.3,33.7,29.94,South,178,0.0,5.0,74,0.00,,OVC080,0.00,VWS V14.00,2014-12-28 06:08:00,
2014-12-28 01:13:00,41.4,33.4,29.94,South,180,3.0,5.0,73,0.00,,OVC080,0.00,VWS V14.00,2014-12-28 06:13:00,
2014-12-28 01:18:00,41.6,33.6,29.94,SSW,205,1.0,4.0,73,0.00,,OVC080,0.00,VWS V14.00,2014-12-28 06:18:00,
2014-12-28 01:23:00,41.7,33.7,29.94,SW,231,0.0,5.0,73,0.00,,OVC080,0.00,VWS V14.00,2014-12-28 06:23:00,
2014-12-28 01:28:00,41.7,33.7,29.93,SW,227,0.0,7.0,73,0.00,,OVC080,0.00,VWS V14.00,2014-12-28 06:28:00,
2014-12-28 01:33:00,41.8,33.8,29.92,SW,232,3.0,7.0,73,0.00,,OVC080,0.00,VWS V14.00,2014-12-28 06:33:00,
2014-12-28 01:38:00,41.8,33.8,29.92,WSW,244,0.0,4.0,73,0.00,,OVC080,0.00,VWS V14.00,2014-12-28 06:38:00,
2014-12-28 01:43:00,42.0,34.0,29.92,WSW,238,4.0,4.0,73,0.00,,OVC080,0.00,VWS V14.00,2014-12-28 06:43:00,
2014-12-28 01:49:00,42.1,33.7,29.92,SW,217,1.0,5.0,72,0.00,,OVC080,0.00,VWS V14.00,2014-12-28 06:49:00,
2014-12-28 01:54:00,42.1,33.7,29.91,South,175,1.0,3.0,72,0.00,,OVC080,0.00,VWS V14.00,2014-12-28 06:54:00,
2014-12-28 01:59:00,42.3,33.9,29.90,South,191,2.0,6.0,72,0.00,,OVC080,0.00,VWS V14.00,2014-12-28 06:59:00,
2014-12-28 02:05:00,42.3,33.9,29.90,SW,231,3.0,3.0,72,0.00,,OVC075,0.00,VWS V14.00,2014-12-28 07:05:00,
2014-12-28 02:10:00,42.4,33.7,29.90,South,187,3.0,6.0,71,0.00,,OVC075,0.00,VWS V14.00,2014-12-28 07:10:00,
2014-12-28 02:15:00,42.4,33.7,29.89,South,181,0.0,4.0,71,0.00,,OVC075,0.00,VWS V14.00,2014-12-28 07:15:00,
2014-12-28 02:20:00,42.6,33.9,29.89,South,190,2.0,6.0,71,0.00,,OVC075,0.00,VWS V14.00,2014-12-28 07:20:00,
2014-12-28 02:26:00,42.6,33.9,29.88,SW,224,4.0,7.0,71,0.00,,OVC075,0.00,VWS V14.00,2014-12-28 07:26:00,
2014-12-28 02:31:00,42.7,33.6,29.87,SW,225,1.0,7.0,70,0.00,,OVC075,0.00,VWS V14.00,2014-12-28 07:31:00,
2014-12-28 02:36:00,42.7,33.6,29.88,SW,227,2.0,4.0,70,0.00,,OVC075,0.00,VWS V14.00,2014-12-28 07:36:00,
2014-12-28 02:41:00,42.7,33.6,29.88,WSW,250,0.0,4.0,70,0.00,,OVC075,0.00,VWS V14.00,2014-12-28 07:41:00,
2014-12-28 02:47:00,42.8,33.7,29.88,SW,221,0.0,3.0,70,0.00,,OVC075,0.00,VWS V14.00,2014-12-28 07:47:00,
2014-12-28 02:52:00,42.8,33.7,29.87,WSW,250,2.0,6.0,70,0.00,,OVC075,0.00,VWS V14.00,2014-12-28 07:52:00,
2014-12-28 02:57:00,42.8,33.7,29.88,SW,221,0.0,3.0,70,0.00,,OVC075,0.00,VWS V14.00,2014-12-28 07:57:00,
2014-12-28 03:02:00,42.8,33.7,29.88,SSW,211,2.0,4.0,70,0.00,,OVC250,0.00,VWS V14.00,2014-12-28 08:02:00,
2014-12-28 03:07:00,42.7,33.6,29.87,SSW,204,4.0,4.0,70,0.00,,OVC250,0.00,VWS V14.00,2014-12-28 08:07:00,
2014-12-28 03:13:00,42.7,33.2,29.87,South,172,1.0,4.0,69,0.00,,OVC250,0.00,VWS V14.00,2014-12-28 08:13:00,
2014-12-28 03:18:00,42.7,33.2,29.87,SW,225,3.0,7.0,69,0.00,,OVC250,0.00,VWS V14.00,2014-12-28 08:18:00,
2014-12-28 03:23:00,42.7,33.2,29.87,South,172,2.0,7.0,69,0.00,,OVC250,0.00,VWS V14.00,2014-12-28 08:23:00,
2014-12-28 03:28:00,42.6,33.2,29.86,South,177,0.0,3.0,69,0.00,,OVC250,0.00,VWS V14.00,2014-12-28 08:28:00,
2014-12-28 03:33:00,42.6,33.2,29.86,South,177,3.0,3.0,69,0.00,,OVC250,0.00,VWS V14.00,2014-12-28 08:33:00,
2014-12-28 03:39:00,42.6,33.5,29.85,South,179,0.0,3.0,70,0.00,,OVC250,0.00,VWS V14.00,2014-12-28 08:39:00,
2014-12-28 03:44:00,42.4,33.3,29.85,South,179,0.0,1.0,70,0.00,,OVC250,0.00,VWS V14.00,2014-12-28 08:44:00,
2014-12-28 03:49:00,42.4,33.3,29.85,South,179,1.0,2.0,70,0.00,,OVC250,0.00,VWS V14.00,2014-12-28 08:49:00,
2014-12-28 03:54:00,42.3,33.2,29.85,South,179,0.0,2.0,70,0.00,,OVC250,0.00,VWS V14.00,2014-12-28 08:54:00,
2014-12-28 04:00:00,42.1,33.0,29.85,SW,233,0.0,4.0,70,0.00,,OVC200,0.00,VWS V14.00,2014-12-28 09:00:00,
2014-12-28 04:05:00,42.1,33.4,29.84,SSW,210,1.0,1.0,71,0.00,,OVC200,0.00,VWS V14.00,2014-12-28 09:05:00,
2014-12-28 04:10:00,42.0,33.3,29.84,SSW,210,0.0,2.0,71,0.00,,OVC200,0.00,VWS V14.00,2014-12-28 09:10:00,
2014-12-28 04:15:00,42.0,33.3,29.84,SSW,210,0.0,0.0,71,0.00,,OVC200,0.00,VWS V14.00,2014-12-28 09:15:00,
2014-12-28 04:21:00,42.0,33.3,29.83,SSW,210,0.0,1.0,71,0.00,,OVC200,0.00,VWS V14.00,2014-12-28 09:21:00,
2014-12-28 04:26:00,41.8,33.1,29.83,South,184,0.0,2.0,71,0.00,,OVC200,0.00,VWS V14.00,2014-12-28 09:26:00,
2014-12-28 04:31:00,41.8,33.1,29.83,South,185,0.0,3.0,71,0.00,,OVC200,0.00,VWS V14.00,2014-12-28 09:31:00,
2014-12-28 04:36:00,41.7,33.3,29.84,WSW,253,0.0,3.0,72,0.00,,OVC200,0.00,VWS V14.00,2014-12-28 09:36:00,
2014-12-28 04:41:00,41.7,33.3,29.84,SW,236,0.0,3.0,72,0.00,,OVC200,0.00,VWS V14.00,2014-12-28 09:41:00,
2014-12-28 04:46:00,41.7,33.3,29.84,South,182,0.0,2.0,72,0.00,,OVC200,0.00,VWS V14.00,2014-12-28 09:46:00,
2014-12-28 04:51:00,41.7,33.3,29.84,SW,223,0.0,3.0,72,0.00,,OVC200,0.00,VWS V14.00,2014-12-28 09:51:00,
2014-12-28 04:56:00,41.7,33.3,29.84,SW,223,0.0,1.0,72,0.00,,OVC200,0.00,VWS V14.00,2014-12-28 09:56:00,
2014-12-28 05:02:00,41.7,33.3,29.84,SW,223,0.0,3.0,72,0.00,,OVC100,0.00,VWS V14.00,2014-12-28 10:02:00,
2014-12-28 05:07:00,41.7,33.3,29.84,SW,223,0.0,0.0,72,0.00,,OVC100,0.00,VWS V14.00,2014-12-28 10:07:00,
2014-12-28 05:12:00,41.7,33.3,29.84,SW,223,0.0,1.0,72,0.00,,OVC100,0.00,VWS V14.00,2014-12-28 10:12:00,
2014-12-28 05:18:00,41.7,33.7,29.83,SW,223,0.0,0.0,73,0.00,,OVC100,0.00,VWS V14.00,2014-12-28 10:18:00,
2014-12-28 05:23:00,41.8,33.8,29.83,SW,223,0.0,1.0,73,0.00,,OVC100,0.00,VWS V14.00,2014-12-28 10:23:00,
2014-12-28 05:28:00,41.8,33.8,29.82,SW,223,0.0,0.0,73,0.00,,OVC100,0.00,VWS V14.00,2014-12-28 10:28:00,
2014-12-28 05:33:00,41.8,33.8,29.81,SW,223,0.0,0.0,73,0.00,,OVC100,0.00,VWS V14.00,2014-12-28 10:33:00,
2014-12-28 05:38:00,41.8,33.8,29.81,SW,223,0.0,0.0,73,0.00,,OVC100,0.00,VWS V14.00,2014-12-28 10:38:00,
2014-12-28 05:44:00,41.8,33.8,29.82,SW,223,0.0,0.0,73,0.00,,OVC100,0.00,VWS V14.00,2014-12-28 10:44:00,
2014-12-28 05:49:00,41.8,33.8,29.82,SW,223,0.0,0.0,73,0.00,,OVC100,0.00,VWS V14.00,2014-12-28 10:49:00,
2014-12-28 05:54:00,41.8,33.8,29.81,SW,223,0.0,0.0,73,0.00,,OVC100,0.00,VWS V14.00,2014-12-28 10:54:00,
2014-12-28 06:00:00,41.8,33.8,29.81,SW,223,0.0,0.0,73,0.00,,OVC100,0.00,VWS V14.00,2014-12-28 11:00:00,
2014-12-28 06:06:00,41.8,33.8,29.81,SW,223,0.0,0.0,73,0.00,,OVC100,0.00,VWS V14.00,2014-12-28 11:06:00,
2014-12-28 06:11:00,41.8,34.1,29.81,SW,223,0.0,1.0,74,0.00,,OVC100,0.00,VWS V14.00,2014-12-28 11:11:00,
2014-12-28 06:16:00,41.8,34.1,29.81,SW,230,0.0,3.0,74,0.00,,OVC100,0.00,VWS V14.00,2014-12-28 11:16:00,
2014-12-28 06:21:00,41.8,34.1,29.81,SSW,207,0.0,3.0,74,0.00,,OVC100,0.00,VWS V14.00,2014-12-28 11:21:00,
2014-12-28 06:26:00,41.8,34.5,29.81,SSW,192,0.0,3.0,75,0.00,,OVC100,0.00,VWS V14.00,2014-12-28 11:26:00,
2014-12-28 06:31:00,41.8,34.5,29.81,SSW,192,1.0,3.0,75,0.00,,OVC100,0.00,VWS V14.00,2014-12-28 11:31:00,
2014-12-28 06:36:00,41.8,34.5,29.81,SSW,192,2.0,2.0,75,0.00,,OVC100,0.00,VWS V14.00,2014-12-28 11:36:00,
2014-12-28 06:41:00,41.8,34.8,29.81,SSW,192,0.0,2.0,76,0.00,,OVC100,0.00,VWS V14.00,2014-12-28 11:41:00,
2014-12-28 06:46:00,42.0,35.0,29.82,SSW,192,0.0,0.0,76,0.00,,OVC100,0.00,VWS V14.00,2014-12-28 11:46:00,
2014-12-28 06:51:00,42.0,35.0,29.82,SSW,192,0.0,0.0,76,0.00,,OVC100,0.00,VWS V14.00,2014-12-28 11:51:00,
2014-12-28 06:57:00,42.0,35.0,29.81,SSW,192,0.0,1.0,76,0.00,,OVC100,0.00,VWS V14.00,2014-12-28 11:57:00,
2014-12-28 07:02:00,42.1,35.1,29.81,NW,308,1.0,1.0,76,0.00,,OVC100,0.00,VWS V14.00,2014-12-28 12:02:00,
2014-12-28 07:08:00,42.1,35.4,29.81,South,174,2.0,2.0,77,0.00,,OVC100,0.00,VWS V14.00,2014-12-28 12:08:00,
2014-12-28 07:13:00,42.1,35.4,29.81,South,174,0.0,2.0,77,0.00,,OVC100,0.00,VWS V14.00,2014-12-28 12:13:00,
2014-12-28 07:18:00,42.3,35.6,29.81,SW,229,1.0,5.0,77,0.00,,OVC100,0.00,VWS V14.00,2014-12-28 12:18:00,
2014-12-28 07:23:00,42.3,35.6,29.81,SSE,167,2.0,2.0,77,0.00,,OVC100,0.00,VWS V14.00,2014-12-28 12:23:00,
2014-12-28 07:29:00,42.4,36.0,29.80,SSW,208,3.0,3.0,78,0.00,,OVC100,0.00,VWS V14.00,2014-12-28 12:29:00,
2014-12-28 07:34:00,42.4,36.0,29.79,SW,220,0.0,2.0,78,0.00,,OVC100,0.00,VWS V14.00,2014-12-28 12:34:00,
2014-12-28 07:39:00,42.6,36.2,29.79,SW,220,1.0,4.0,78,0.00,,OVC100,0.00,VWS V14.00,2014-12-28 12:39:00,
2014-12-28 07:44:00,42.6,36.2,29.80,South,180,0.0,2.0,78,0.00,,OVC100,0.00,VWS V14.00,2014-12-28 12:44:00,
2014-12-28 07:49:00,42.7,36.3,29.79,South,185,0.0,3.0,78,0.00,,OVC100,0.00,VWS V14.00,2014-12-28 12:49:00,
2014-12-28 07:54:00,42.7,36.7,29.79,SW,229,2.0,4.0,79,0.00,,OVC100,0.00,VWS V14.00,2014-12-28 12:54:00,
2014-12-28 08:00:00,42.8,36.8,29.79,SW,219,0.0,4.0,79,0.00,,OVC095,0.00,VWS V14.00,2014-12-28 13:00:00,
2014-12-28 08:05:00,43.0,36.9,29.80,SW,219,0.0,1.0,79,0.00,,OVC095,0.00,VWS V14.00,2014-12-28 13:05:00,
2014-12-28 08:10:00,43.0,37.3,29.80,SW,219,1.0,4.0,80,0.00,,OVC095,0.00,VWS V14.00,2014-12-28 13:10:00,
2014-12-28 08:15:00,43.1,37.4,29.80,South,184,2.0,3.0,80,0.01,,OVC095,0.01,VWS V14.00,2014-12-28 13:15:00,
2014-12-28 08:20:00,43.1,37.7,29.80,SSW,211,0.0,3.0,81,0.01,,OVC095,0.01,VWS V14.00,2014-12-28 13:20:00,
2014-12-28 08:25:00,43.0,37.6,29.80,SW,226,0.0,4.0,81,0.01,,OVC095,0.01,VWS V14.00,2014-12-28 13:25:00,
2014-12-28 08:30:00,43.0,37.9,29.79,South,169,0.0,4.0,82,0.01,,OVC095,0.01,VWS V14.00,2014-12-28 13:30:00,
2014-12-28 08:36:00,43.0,37.9,29.79,SW,221,0.0,4.0,82,0.01,,OVC095,0.01,VWS V14.00,2014-12-28 13:36:00,
2014-12-28 08:41:00,43.0,38.2,29.79,SW,217,0.0,4.0,83,0.01,,OVC095,0.01,VWS V14.00,2014-12-28 13:41:00,
2014-12-28 08:47:00,42.8,38.0,29.79,SW,234,0.0,3.0,83,0.01,,OVC095,0.01,VWS V14.00,2014-12-28 13:47:00,
2014-12-28 08:52:00,42.8,38.3,29.79,SW,215,0.0,3.0,84,0.01,,OVC095,0.01,VWS V14.00,2014-12-28 13:52:00,
2014-12-28 08:58:00,42.8,38.3,29.79,SSW,199,0.0,2.0,84,0.01,,OVC095,0.01,VWS V14.00,2014-12-28 13:58:00,
2014-12-28 09:03:00,42.8,38.3,29.79,SSW,199,2.0,2.0,84,0.01,,OVC090,0.01,VWS V14.00,2014-12-28 14:03:00,
2014-12-28 09:08:00,42.8,38.6,29.78,SW,224,0.0,4.0,85,0.01,,OVC090,0.01,VWS V14.00,2014-12-28 14:08:00,
2014-12-28 09:13:00,42.8,38.6,29.78,SW,215,2.0,4.0,85,0.01,,OVC090,0.01,VWS V14.00,2014-12-28 14:13:00,
2014-12-28 09:19:00,42.8,38.9,29.78,South,186,0.0,4.0,86,0.00,,OVC090,0.01,VWS V14.00,2014-12-28 14:19:00,
2014-12-28 09:24:00,42.8,38.9,29.77,SW,232,0.0,1.0,86,0.00,,OVC090,0.01,VWS V14.00,2014-12-28 14:24:00,
2014-12-28 09:29:00,42.8,38.9,29.77,South,185,1.0,3.0,86,0.00,,OVC090,0.01,VWS V14.00,2014-12-28 14:29:00,
2014-12-28 09:34:00,42.8,39.2,29.78,WSW,252,0.0,1.0,87,0.00,,OVC090,0.01,VWS V14.00,2014-12-28 14:34:00,
2014-12-28 09:39:00,42.8,39.2,29.78,WNW,284,0.0,3.0,87,0.00,,OVC090,0.01,VWS V14.00,2014-12-28 14:39:00,
2014-12-28 09:45:00,43.0,39.4,29.79,WSW,258,0.0,2.0,87,0.00,,OVC090,0.01,VWS V14.00,2014-12-28 14:45:00,
2014-12-28 09:50:00,43.0,39.4,29.79,WSW,250,0.0,3.0,87,0.00,,OVC090,0.01,VWS V14.00,2014-12-28 14:50:00,
2014-12-28 09:56:00,43.1,39.5,29.80,WSW,246,3.0,3.0,87,0.00,,OVC090,0.01,VWS V14.00,2014-12-28 14:56:00,
2014-12-28 10:01:00,43.3,40.0,29.79,SW,225,2.0,3.0,88,0.00,,OVC065,0.01,VWS V14.00,2014-12-28 15:01:00,
2014-12-28 10:06:00,43.3,40.0,29.78,South,182,3.0,3.0,88,0.00,,OVC065,0.01,VWS V14.00,2014-12-28 15:06:00,
2014-12-28 10:11:00,43.4,40.1,29.79,West,271,1.0,4.0,88,0.00,,OVC065,0.01,VWS V14.00,2014-12-28 15:11:00,
2014-12-28 10:17:00,43.6,40.3,29.79,SSW,200,1.0,5.0,88,0.01,,OVC065,0.02,VWS V14.00,2014-12-28 15:17:00,
2014-12-28 10:22:00,43.7,40.4,29.78,SSW,192,0.0,5.0,88,0.01,,OVC065,0.02,VWS V14.00,2014-12-28 15:22:00,
2014-12-28 10:27:00,43.9,40.9,29.78,West,259,0.0,4.0,89,0.01,,OVC065,0.02,VWS V14.00,2014-12-28 15:27:00,
2014-12-28 10:32:00,44.2,41.2,29.78,WSW,257,3.0,4.0,89,0.01,,OVC065,0.02,VWS V14.00,2014-12-28 15:32:00,
2014-12-28 10:37:00,44.3,41.3,29.77,SW,227,2.0,3.0,89,0.01,,OVC065,0.02,VWS V14.00,2014-12-28 15:37:00,
2014-12-28 10:42:00,44.5,41.5,29.76,West,272,5.0,5.0,89,0.01,,OVC065,0.02,VWS V14.00,2014-12-28 15:42:00,
2014-12-28 10:47:00,44.6,41.6,29.76,SW,227,0.0,6.0,89,0.01,,OVC065,0.02,VWS V14.00,2014-12-28 15:47:00,
2014-12-28 10:53:00,44.9,41.9,29.76,South,181,0.0,6.0,89,0.01,,OVC065,0.02,VWS V14.00,2014-12-28 15:53:00,
2014-12-28 10:58:00,45.0,42.0,29.76,West,267,0.0,5.0,89,0.01,,OVC065,0.02,VWS V14.00,2014-12-28 15:58:00,
2014-12-28 11:03:00,45.2,42.2,29.75,SW,230,0.0,5.0,89,0.01,,-RA,0.02,VWS V14.00,2014-12-28 16:03:00,
2014-12-28 11:08:00,45.2,42.2,29.75,SW,233,0.0,3.0,89,0.01,,-RA,0.02,VWS V14.00,2014-12-28 16:08:00,
2014-12-28 11:13:00,45.3,42.3,29.75,SW,217,2.0,3.0,89,0.01,,-RA,0.02,VWS V14.00,2014-12-28 16:13:00,
2014-12-28 11:18:00,45.5,42.5,29.75,West,275,0.0,4.0,89,0.00,,-RA,0.02,VWS V14.00,2014-12-28 16:18:00,
2014-12-28 11:23:00,45.5,42.5,29.75,SW,218,0.0,5.0,89,0.00,,-RA,0.02,VWS V14.00,2014-12-28 16:23:00,
2014-12-28 11:29:00,45.6,42.5,29.74,SW,229,4.0,4.0,89,0.00,,-RA,0.02,VWS V14.00,2014-12-28 16:29:00,
2014-12-28 11:34:00,45.8,42.5,29.75,WNW,293,1.0,1.0,88,0.00,,-RA,0.02,VWS V14.00,2014-12-28 16:34:00,
2014-12-28 11:39:00,45.9,42.5,29.74,WSW,241,0.0,5.0,88,0.00,,-RA,0.02,VWS V14.00,2014-12-28 16:39:00,
2014-12-28 11:44:00,45.9,42.5,29.74,South,172,0.0,2.0,88,0.00,,-RA,0.02,VWS V14.00,2014-12-28 16:44:00,
2014-12-28 11:49:00,46.1,42.8,29.73,West,278,0.0,4.0,88,0.00,,-RA,0.02,VWS V14.00,2014-12-28 16:49:00,
2014-12-28 11:55:00,46.2,42.5,29.74,SSW,211,1.0,2.0,87,0.00,,-RA,0.02,VWS V14.00,2014-12-28 16:55:00,
2014-12-28 12:00:00,46.2,42.5,29.74,West,259,0.0,4.0,87,0.00,,OVC080,0.02,VWS V14.00,2014-12-28 17:00:00,
2014-12-28 12:05:00,46.4,42.8,29.74,WSW,250,0.0,0.0,87,0.00,,OVC080,0.02,VWS V14.00,2014-12-28 17:05:00,
2014-12-28 12:11:00,46.5,42.8,29.74,WSW,249,1.0,3.0,87,0.00,,OVC080,0.02,VWS V14.00,2014-12-28 17:11:00,
2014-12-28 12:16:00,46.7,42.7,29.74,WSW,252,0.0,2.0,86,0.00,,OVC080,0.02,VWS V14.00,2014-12-28 17:16:00,
2014-12-28 12:22:00,46.7,42.7,29.74,WSW,252,0.0,2.0,86,0.00,,OVC080,0.02,VWS V14.00,2014-12-28 17:22:00,
2014-12-28 12:27:00,47.0,43.0,29.73,West,268,4.0,4.0,86,0.00,,OVC080,0.02,VWS V14.00,2014-12-28 17:27:00,
2014-12-28 12:33:00,47.1,42.8,29.73,WSW,242,1.0,5.0,85,0.00,,OVC080,0.02,VWS V14.00,2014-12-28 17:33:00,
2014-12-28 12:38:00,47.3,43.0,29.73,West,281,0.0,4.0,85,0.00,,OVC080,0.02,VWS V14.00,2014-12-28 17:38:00,
2014-12-28 12:43:00,47.4,42.8,29.73,WSW,256,0.0,4.0,84,0.00,,OVC080,0.02,VWS V14.00,2014-12-28 17:43:00,
2014-12-28 12:49:00,47.6,42.7,29.73,WSW,246,0.0,5.0,83,0.00,,OVC080,0.02,VWS V14.00,2014-12-28 17:49:00,
2014-12-28 12:54:00,47.7,42.5,29.74,WNW,285,0.0,2.0,82,0.00,,OVC080,0.02,VWS V14.00,2014-12-28 17:54:00,
2014-12-28 12:59:00,47.9,42.7,29.75,WSW,244,1.0,5.0,82,0.00,,OVC080,0.02,VWS V14.00,2014-12-28 17:59:00,
2014-12-28 13:04:00,48.0,42.5,29.75,WSW,257,0.0,0.0,81,0.00,,OVC140,0.02,VWS V14.00,2014-12-28 18:04:00,
2014-12-28 13:10:00,48.1,42.2,29.75,West,271,2.0,9.0,80,0.00,,OVC140,0.02,VWS V14.00,2014-12-28 18:10:00,